1998-067JL

Last updated on May 29, 2016, 5:36 p.m. UTC

1 41490U 98067JL  16150.25130808  .00018825  00000-0  27409-3 0  9997
2 41490  51.6416 152.4197 0002152 348.1050 100.2304 15.55765748  1669

Satellite is not in orbit.